Preview of NWS' New Version of Forecast
This preview is not operational and should not be used for support decisions.
Latest weather observations around

New York City, Central Park (KNYC)

Using English Units (Switch to International System of Units)
Date/ Time (EDT) Wind (mph) Vis. (mi) Weather Sky Cond. Temp (°F) Rel. Humidity Wind Chill (°F) Heat Index (°F) Pressure Precip. (in)
Air Dwpt 6 hour Altimeter (inHg) Sea level (inHg) 1 hr 3 hr 6 hr
Max Min
Jun 19 04:51 Calm 1.5 Fog/Mist OVC006 67 66     97%     29.89 29.86      
Jun 19 04:05 N 3 1.25 Fog/Mist OVC007 67 66     97%     29.9        
Jun 19 03:51 Calm 0.75 Fog/Mist OVC007 67 66     97%     29.89 29.87      
Jun 19 03:31 NE 3 1.75 Fog/Mist BKN007 BKN018 OVC025 67 66     97%     29.89        
Jun 19 03:22 NE 3 1.25 Fog/Mist SCT005 BKN018 OVC025 67 65     93%     29.9        
Jun 19 03:07 Calm 1 Fog/Mist BKN005 OVC025 67 65     93%     29.89        
Jun 19 03:00 Calm 2 Fog/Mist BKN005 BKN017 OVC025 67 65     93%     29.9        
Jun 19 02:51 NNE 3 1.75 Fog/Mist OVC005 67 65     93%     29.9 29.88      
Jun 19 02:44 Calm 1.5 Fog/Mist OVC005 67 65     93%     29.91        
Jun 19 02:22 Calm 1.25 Fog/Mist OVC003 67 65     93%     29.91        
Jun 19 02:12 Calm 0.75 Fog/Mist OVC003 67 65     93%     29.91        
Jun 19 01:51 Calm 1.25 Fog/Mist OVC003 67 65     93%     29.91 29.88     0
Jun 19 01:28 Calm 1.75 Fog/Mist OVC003 66 65     96%     29.91        
Jun 19 01:10 ENE 3 2.5 Fog/Mist OVC003 67 65     93%     29.91        
Jun 19 00:51 Calm 1.25 Fog/Mist OVC003 67 66     97%     29.92 29.89      
Jun 19 00:40 Calm 1.5 Fog/Mist OVC004 67 66     97%     29.92        
Jun 19 00:08 ENE 3 2 Fog/Mist OVC004 67 66     97%     29.92        
Jun 18 23:51 Calm 1.75 Fog/Mist OVC004 67 66     97%     29.92 29.89      
Jun 18 22:51 NE 3 2.5 Fog/Mist OVC005 67 65     93%     29.92 29.89 0 0  
Jun 18 22:38 NE 5 2.5 Light Rain and Fog/Mist OVC005 67 66     97%     29.92   0    
Jun 18 22:15 NE 6 3 Fog/Mist OVC004 67 65     93%     29.92   0    
Jun 18 21:51 ENE 3 2.5 Light Rain and Fog/Mist OVC004 67 66     97%     29.9 29.88 0    
Jun 18 21:36 ENE 10 2.5 Light Rain and Fog/Mist OVC004 67 66     97%     29.9   0    
Jun 18 21:19 5 3 Fog/Mist OVC004 67 66     97%     29.9        
Jun 18 21:09 3 2.5 Fog/Mist OVC004 67 66     97%     29.89        
Jun 18 21:00 NE 5 3 Fog/Mist OVC004 67 66     97%     29.89        
Jun 18 20:51 NE 5 2.5 Fog/Mist OVC004 68 66     93%     29.89 29.86 0    
Jun 18 20:39 5 2.5 Light Rain and Fog/Mist OVC004 68 67     96%     29.89   0    
Jun 18 20:04 NE 6 2.5 Fog/Mist OVC005 70 68     93%     29.88        
Jun 18 19:51 ENE 3 1.75 Fog/Mist OVC006 70 69     97%     29.88 29.85 0   0
Jun 18 19:30 3 2.5 Light Rain and Fog/Mist OVC007 70 69     97%     29.88   0    
Jun 18 18:51 3 1.75 Fog/Mist BKN007 OVC011 70 69     97%     29.88 29.85 0    
Jun 18 18:29 5 1.5 Light Rain and Fog/Mist OVC006 70 69     97%     29.87   0    
Jun 18 17:51 ENE 5 0.75 Heavy Rain and Fog/Mist BKN008 OVC025 71 69     93%   72 29.86 29.83 0    
Jun 18 17:46 NE 5 0.75 Heavy Rain and Fog/Mist BKN008 OVC021 72 70     94%   73 29.87   0    
Jun 18 17:25 ESE 3 1.5 Light Rain and Fog/Mist BKN009 BKN013 OVC080 71 69     93%   72 29.88   0    
Jun 18 16:51 ESE 3 2.5 Fog/Mist OVC010 71 69     93%   72 29.88 29.85   0  
Jun 18 16:41 Calm 2 Fog/Mist OVC010 71 69     93%   72 29.89        
Jun 18 16:20 3 2.5 Fog/Mist OVC008 71 69     93%   72 29.89        
Jun 18 15:51 Calm 4 Fog/Mist BKN009 72 70     93%   73 29.9 29.87 0    
Jun 18 15:47 5 4 Fog/Mist BKN009 72 70     94%   73 29.9   0    
Jun 18 15:35 Calm 2.5 Fog/Mist BKN007 71 70     96%   72 29.9   0    
Jun 18 15:24 3 2 Light Rain and Fog/Mist SCT009 BKN012 BKN032 71 69     93%   72 29.9   0    
Jun 18 15:19 Calm 1.5 Light Rain and Fog/Mist BKN009 OVC012 71 69     93%   72 29.91   0    
Jun 18 15:08 3 0.5 Rain and Fog BKN009 OVC013 71 70     96%   72 29.91   0    
Jun 18 14:51 Calm 1.5 Light Rain and Fog/Mist BKN009 BKN014 OVC033 71 70     96%   72 29.92 29.89 0    
Jun 18 14:46 Calm 1.75 Light Rain and Fog/Mist BKN009 BKN016 OVC033 72 70     94%   73 29.91   0    
Jun 18 14:39 Calm 2 Light Rain and Fog/Mist SCT009 BKN016 OVC065 71 69     93%   72 29.91   0    
Jun 18 14:29 3 1.5 Light Rain and Fog/Mist BKN014 BKN039 OVC050 71 69     93%   72 29.92   0    
Jun 18 14:16 6 1.25 Light Rain and Fog/Mist SCT014 BKN038 OVC070 71 70     96%   72 29.91   0    
Jun 18 13:58 3 0.75 Rain and Fog/Mist FEW008 BKN050 OVC065 71 70     96%   72 29.91   0    
Jun 18 13:51 Calm 0.75 Rain and Fog/Mist SCT038 BKN055 OVC070 71 70     96%   72 29.91 29.88 0   0
Jun 18 13:19 3 0.75 Light Rain and Fog/Mist SCT016 BKN038 OVC065 71 70     96%   72 29.93   0    
Jun 18 13:10 3 0.75 Light Rain and Fog/Mist BKN016 BKN033 OVC055 71 70     96%   72 29.93   0    
Jun 18 13:01 Calm 1 Rain and Fog/Mist SCT016 BKN036 OVC085 71 70     96%   72 29.94   0    
Jun 18 12:51 SE 3 0.75 Rain and Fog/Mist SCT015 BKN028 OVC090 71 69     93%   72 29.93 29.91 0    
Jun 18 12:21 3 2 Light Rain and Fog/Mist FEW017 BKN033 OVC065 71 69     93%   72 29.94   0    
Jun 18 12:09 5 0.75 Rain and Fog/Mist BKN018 BKN050 OVC085 72 69     91%   73 29.94   0    
Jun 18 11:54 3 3 Fog/Mist BKN017 BKN055 OVC085 73 69     87%   74 29.95        
Jun 18 11:51 3 1.25 Fog/Mist BKN015 BKN050 OVC085 73 70     90%   74 29.95 29.92      
Jun 18 11:43 Calm 1.75 Fog/Mist BKN015 OVC050 73 70     90%   74 29.95        
Jun 18 10:51 Calm 5 Fog/Mist FEW018 SCT050 BKN060 73 70     90%   74 29.96 29.93 0 0  
Jun 18 10:18 Calm 3 Light Rain and Fog/Mist FEW020 BKN060 OVC090 72 70     93%   73 29.96   0    
Jun 18 10:09 Calm 2.5 Light Rain and Fog/Mist BKN055 BKN070 OVC090 72 70     93%   73 29.96   0    
Jun 18 09:51 Calm 4 Fog/Mist FEW011 BKN055 OVC090 71 69     93%   72 29.97 29.94      
Jun 18 09:40 Calm 4 Fog/Mist SCT011 OVC055 71 69     93%   72 29.97        
Jun 18 09:23 Calm 5 Fog/Mist OVC010 71 69     93%   72 29.97        
Jun 18 09:06 Calm 4 Fog/Mist OVC008 70 69     97%     29.98        
Jun 18 08:51 SE 5 2.5 Fog/Mist OVC006 70 68     93%     29.98 29.95 0    
Jun 18 08:23   1.25 Fog/Mist BKN006 OVC013 69 68     96%     29.99   0    
Jun 18 07:51 Calm 0.5 Light Rain and Fog OVC008 70 68     93%     29.99 29.96 0   0
Jun 18 07:14 Calm 0.75 Heavy Rain and Fog/Mist OVC008 70 68     93%     29.99   0    
Jun 18 06:51 Calm 1.25 Light Rain and Fog/Mist OVC010 70 67     90%     29.98 29.96 0    
Jun 18 06:40 Calm 1.75 Rain and Fog/Mist OVC010 70 67     90%     29.98   0    
Jun 18 06:25 Calm 2 Light Rain and Fog/Mist OVC009 70 67     90%     29.98   0    
Jun 18 06:06 Calm 3 Light Rain and Fog/Mist BKN011 OVC100 69 67     93%     29.98   0    
Jun 18 05:51 Calm 4 Fog/Mist FEW011 FEW048 BKN100 70 67     90%     29.98 29.95 0    
Jun 18 04:51 Calm 6 Fog/Mist BKN110 69 66     90%     29.97 29.94      
Jun 18 04:36 Calm 6 Fog/Mist FEW010 BKN120 70 66     87%     29.97        
Jun 18 03:51 Calm 6 Fog/Mist BKN012 70 67     90%     29.97 29.94      
Jun 18 03:27 WSW 5 8 Cloudy FEW009 SCT013 OVC055 70 66     87%     29.97        
Jun 18 03:01 Calm 9 Mostly Cloudy SCT014 BKN055 70 65     84%     29.97        
Jun 18 02:51 Calm 9 Mostly Cloudy BKN015 70 65     84%     29.98 29.95      
Jun 18 02:31 Calm 9 Mostly Cloudy BKN017 BKN080 70 65     84%     29.99        
Jun 18 01:51 Calm 10 Partly Cloudy SCT085 70 65     84%     30 29.97     0
Jun 18 00:51 Calm 10 Cloudy OVC100 71 65     81%   72 30.01 29.98      
Jun 17 23:51 Calm 10 Clear CLR 70 64     81%     30.02 29.99      
Jun 17 22:51 Calm 10 Partly Cloudy SCT028 71 63     76%   71 30.02 29.99   0  
Jun 17 21:51 Calm 10 Mostly Clear FEW025 71 62     73%   71 30.01 29.98 0    
Jun 17 20:51 3 10 Light Rain CLR 72 63     73%   72 30 29.97 0    
Jun 17 19:51   10 Mostly Clear FEW029 FEW037 73 64     73%   73 30.01 29.98     0
Jun 17 18:51 Calm 10 Cloudy FEW027 BKN034 OVC055 75 65     71%   76 30 29.97      
Jun 17 18:43 Calm 10 Mostly Cloudy FEW026 BKN034 BKN055 75 65     71%   76 30        
Jun 17 18:14 Calm 10 Cloudy BKN027 BKN034 OVC070 75 66     74%   76 29.99        
Jun 17 17:51 Calm 10 Partly Cloudy FEW027 SCT070 75 66     74%   76 29.99 29.97      
Jun 17 16:51 Calm 10 Cloudy BKN030 BKN036 OVC050 74 65     74%   74 30.01 29.98   0  
Jun 17 16:48 NE 5 10 Cloudy BKN030 BKN036 OVC050 73 66     78%   74 30.01        
Jun 17 16:12 Calm 10 Cloudy BKN025 OVC034 72 66     82%   73 30.03        
Jun 17 15:51 NNE 3 7 Cloudy OVC034 73 67     81%   74 30.02 30 0    
Jun 17 14:51 Calm 10 Cloudy FEW028 OVC040 73 65     76%   74 30.03 30 0    
Jun 17 14:49 Calm 10 Cloudy SCT028 OVC040 73 66     78%   74 30.03   0    
Jun 17 14:41 Calm 10 Light Rain BKN029 OVC040 74 65     74%   74 30.03   0    
Jun 17 13:51 Calm 10 Cloudy OVC032 73 65     76%   74 30.02 29.99     0
Jun 17 13:33 Calm 10 Cloudy BKN031 OVC036 73 64     73%   73 30.02        
Jun 17 12:51 3 10 Cloudy OVC026 75 63     66%   75 30.01 29.98 0    
Jun 17 11:51 W 3 10 Light Rain OVC027 73 65     76%   74 30.01 29.98 0    
Jun 17 11:33 Calm 10 Cloudy BKN026 OVC037 73 63     71%   73 30        
Jun 17 10:51 Calm 10 Mostly Cloudy FEW025 SCT030 BKN036 74 64     71%   74 30 29.97      
Jun 17 09:51 Calm 10 Cloudy OVC022 72 64     76%   72 30.01 29.98      
Jun 17 08:51 Calm 10 Cloudy BKN024 OVC030 72 64     76%   72 30 29.97      
Jun 17 08:08 3 10 Cloudy BKN016 OVC024 70 64     81%     29.98        
Jun 17 07:51 3 10 Cloudy OVC014 70 65     84%     29.96 29.93     0
Jun 17 07:38 NNE 10 10 Mostly Cloudy BKN012 71 65     81%   72 29.95        
Jun 17 06:51 N 6 10 Cloudy OVC017 71 65     81%   72 29.97 29.94      
Jun 17 06:44 6 10 Mostly Cloudy BKN015 71 65     81%   72 29.97        
Jun 17 05:51 Calm 10 Mostly Cloudy BKN100 70 65     84%     29.94 29.91      
Jun 17 04:51 N 3 10 Mostly Cloudy FEW029 BKN044 70 65     84%     29.92 29.89   0  
Jun 17 04:42 Calm 10 Mostly Cloudy FEW022 SCT029 BKN044 70 65     84%     29.91        
Jun 17 04:23 Calm 10 Mostly Cloudy BKN022 BKN027 BKN110 71 65     81%   72 29.91        
Jun 17 04:14 Calm 10 Mostly Cloudy SCT022 BKN055 BKN110 71 65     81%   72 29.91        
Jun 17 03:51   10 Cloudy FEW013 BKN020 OVC110 71 66     84%   72 29.9 29.87 0    
Jun 17 03:48 N 6 10 Cloudy BKN016 BKN060 OVC110 72 66     83%   72 29.89   0    
Jun 17 02:51 Calm 9 Cloudy SCT060 OVC110 73 69     87%   74 29.88 29.85      
Jun 17 01:51 WNW 3 10 Clear   73 69     87%   74 29.88 29.84     0
Jun 17 00:51 W 5 9 Cloudy OVC075 73 69     87%   74 29.87 29.84 0    
Jun 16 23:51 W 5 10 Cloudy FEW060 SCT075 OVC085 74 67     79%   75 29.87 29.84      
Jun 16 22:51 3 10 Cloudy OVC065 74 68     82%   75 29.87 29.84      
Jun 16 21:51 6 10 Mostly Cloudy BKN080 74 68     82%   75 29.86 29.83      
Jun 16 20:51 SW 8 10 Mostly Clear FEW075 74 67     79%   75 29.85 29.82      
Jun 16 19:51 WSW 8 10 Partly Cloudy SCT085 75 67     76%   76 29.84 29.81     0
Jun 16 18:51 3 10 Mostly Cloudy FEW043 SCT055 BKN090 78 64     62%   79 29.83 29.8 0    
Jun 16 17:51 WSW 9 10 Cloudy BKN047 OVC060 79 64     60%   79 29.81 29.78      
Jun 16 16:51 7 10 Cloudy FEW044 BKN060 OVC070 80 65     60%   82 29.81 29.78   0  
Jun 16 15:51 6 10 Cloudy BKN048 OVC070 77 65     66%   78 29.83 29.8      
Jun 16 14:51 W 10 10 Mostly Cloudy SCT060 BKN100 78 66     67%   79 29.84 29.81 0    
Jun 16 13:51 3 10 Cloudy BKN070 OVC085 74 64     71%   74 29.87 29.84 0   0
Jun 16 12:51 3 10 Mostly Cloudy FEW070 BKN100 76 64     67%   76 29.87 29.84      
Jun 16 11:51   10 Clear CLR 77 62     60%   77 29.88 29.85      
Jun 16 10:51 3 10 Clear CLR 75 63     66%   75 29.9 29.87      
Jun 16 09:51 Calm 10 Clear CLR 71 63     76%   71 29.92 29.89      
Jun 16 08:51 6 10 Clear CLR 70 60     71%     29.92 29.9      
Jun 16 07:51 6 10 Mostly Clear FEW110 68 61     78%     29.93 29.9     0
Jun 16 06:51 6 10 Mostly Cloudy SCT095 BKN120 66 62     87%     29.94 29.91 0    
Jun 16 05:51 SSW 3 10 Light Rain BKN085 OVC100 65 62     90%     29.95 29.92 0    
Jun 16 04:51 5 10 Light Rain BKN100 BKN120 65 61     87%     29.94 29.91 0 0  
May 15 02:51 Calm 6 Fog/Mist OVC007 61 58     90%     29.92 29.89      
May 14 21:33 5 8 Clear   60 56     86%     29.95        
May 14 05:51 Calm 4 Fog/Mist OVC007 53 51     93%     30.04 30.02      
May 13 16:08 SSE 8 6 Fog/Mist OVC010 53 52     96%     30.14        
May 13 14:51 Calm 5 Light Rain and Fog/Mist OVC007 52 51     97%     30.15 30.13 0    
May 13 13:51 Calm 3 Light Rain and Fog/Mist OVC007 52 50     93%     30.19 30.16 0   0
May 12 14:51 ENE 5 9 Cloudy OVC016 58 52     81%     30.08 30.05      
May 12 00:51 5 10 Light Rain FEW065 OVC085 63 37     38%     30.15 30.12 0    
May 11 09:51   10 Clear CLR 64 38     38%     30.02 30      
Jun 12 03:51 5 10 Clear CLR 77 63     62%   77 30.03 30      
Jun 11 19:51 W 10 10 Clear CLR 88 59     38%   87 30.02 29.98      
Jun 11 17:51 5 10 Clear CLR 89 60     38%   89 30.01 29.98      
Jun 11 10:51 5 10 Clear CLR 84 61     46%   84 30.09 30.06      
Jun 10 07:51 WNW 5 10 Clear CLR 69 53     57%     30.01 29.98      
Jun 09 22:51 5 10 Clear CLR 74 50     43%   73 29.89 29.87      
Jun 08 10:51 5 10 Clear CLR 67 55     66%     30.04 30.01      
Jun 06 12:21 ENE 5 2 Fog/Mist OVC010 55 53     93%     29.81